Regional Weather Roundup
Issued by NWS

Home | Current Version | Previous Version | Graphics & Text | Print | Product List | Glossary On
Versions: 1 2 3 4 5 6 7 8 9 10 11 12 13 14 15 16 17 18 19 20 21 22 23 24 25 26 27
000
ASUS45 KSLC 220710
RWRUT

UTAH REGIONAL WEATHER ROUNDUP
NATIONAL WEATHER SERVICE SALT LAKE CITY UT
100 AM MDT TUE APR 22 2014

UTZ001>011-023>025-220800-

NORTHERN UTAH

CITY           SKY/WX    TMP DP  RH WIND       PRES   REMARKS
HILL AFB       MOCLDY    62  31  31 SE9       29.89F
LOGAN          CLOUDY    55  39  54 VRB3      29.89F
OGDEN          MOCLDY    60  32  34 S7        29.87F
PROVO AIRPORT  MOCLDY    63  36  36 SE13      29.94F
SALT LAKE CITY MOCLDY    68  31  25 S17       29.86F
VERNAL         CLOUDY    53  33  46 W5        30.03S
WENDOVER       CLOUDY    63  21  20 S7        29.86F
HEBER CITY     MOCLDY    50  32  50 CALM      29.99F
WEST JORDAN    CLEAR     63  39  42 SE15      29.90F

$$

UTZ012>022-026-027-220800-

SOUTHERN UTAH

CITY           SKY/WX    TMP DP  RH WIND       PRES   REMARKS
BRYCE CANYON   MOCLDY    41  30  65 W7        30.18S
CEDAR CITY     MOCLDY    53  28  38 SW7       30.03S
MILFORD        PTCLDY    62  29  28 SW14      29.97F
MOAB/CYNLANDS  CLEAR     58  28  32 E5        29.98F
PRICE          MOCLDY    54  32  43 N10       30.05F
ST GEORGE      PTSUNNY   72  30  21 S8        29.92S

$$

REGIONAL REPORTS     COLORADO/ARIZONA

CITY           SKY/WX    TMP DP  RH WIND       PRES   REMARKS
CRAIG, CO      PTCLDY    42  32  67 E5        30.12F
GRAND JUNCTION PTCLDY    56  31  38 E14       30.04F
RIFLE          PTCLDY    47  31  53 CALM      30.12S
MONTROSE       PTCLDY    54  29  38 E9        30.14S
CORTEZ         CLEAR     41  29  62 CALM      30.14F
PAGE, AZ       PTCLDY    71  31  22 S9        29.98S
GRAND CANYON   PTCLDY    41  29  62 CALM      30.18F
KINGMAN        MOCLDY    67  28  23 S12       29.98S
FLAGSTAFF      PTCLDY    44  27  51 CALM      30.22F

$$

REGIONAL REPORTS    NEVADA/IDAHO/WYOMING

CITY           SKY/WX    TMP DP  RH WIND       PRES   REMARKS
LAS VEGAS, NV  CLOUDY    81  30  15 S13       29.80F
ELY            CLOUDY    52  21  29 S10       29.98F
ELKO           CLOUDY    52  21  29 W3        29.90F
POCATELLO, ID  CLOUDY    60  36  40 W16       29.94F
BURLEY         CLOUDY    55  39  54 S5        29.85F
EVANSTON, WY     N/A     51  25  36 SE6       30.04F
ROCK SPRINGS   MOCLDY    50  24  36 S7        30.07F

$$



USA.gov is the U.S. government's official web portal to all federal, state and local government web resources and services.